カタログに戻る

STARLINK-38063

運用中通信SSO
NORAD 69979·PAYLOAD·🇺🇸 United States

打ち上げ Jul 11, 2026 から Vandenberg Space Force Base

Loading…

次のパス (今後24時間)

TLE

最新Source: CelesTrak SupGP

元期: Sep 15, 2026, 03:14 UTC

1 69979C 26159E   26258.13520833 -.02665900  00000+0 -41534-1 0  2586
2 69979  97.2852  99.9139 0002138  88.0309  47.0839 15.55264122    12

AllMySatでSTARLINK-38063をリアルタイム追跡

Download on the App Store